Regional Weather Roundup
Issued by NWS

Home | Current Version | Previous Version | Text Only | Print | Product List | Glossary Off
Versions: 1 2 3 4 5 6 7 8 9 10 11 12 13 14 15 16 17 18 19 20 21 22 23 24 25 26 27 28 29 30 31 32 33 34 35 36 37 38 39 40 41 42 43 44 45 46 47 48 49 50

000
ASUS43 KMKX 061211
RWRWI

WISCONSIN REGIONAL WEATHER ROUNDUP
NATIONAL WEATHER SERVICE MILWAUKEE/SULLIVAN WI
700 AM CDT FRI MAY 06 2016

NOTE: "FAIR" INDICATES FEW OR NO CLOUDS BELOW 12,000 FEET WITH NO
SIGNIFICANT WEATHER AND/OR OBSTRUCTIONS TO VISIBILITY.

WIZ001-002-006>008-014>016-023>028-061300-
NORTHWEST WISCONSIN

CITY           SKY/WX    TMP DP  RH WIND       PRES   REMARKS
SUPERIOR ARPT  SUNNY     60  44  54 SW9       29.78R
6HR MIN TEMP:  39; 6HR MAX TEMP:  62;

ASHLAND        NOT AVBL
HAYWARD        NOT AVBL
SIREN          MOSUNNY   62  43  49 W6        29.85R
6HR MIN TEMP:  58; 6HR MAX TEMP:  68;

CUMBERLAND     SUNNY     57  41  54 W8        29.86R
RICE LAKE      SUNNY     50  44  81 CALM      29.87S
6HR MIN TEMP:  45; 6HR MAX TEMP:  54;

CHETEK         SUNNY     47  45  91 E3        29.87R
6HR MIN TEMP:  43; 6HR MAX TEMP:  53;

LADYSMITH      SUNNY     51  40  66 CALM      29.88R
6HR MIN TEMP:  46; 6HR MAX TEMP:  55;

EAU CLAIRE     NOT AVBL
MENOMONIE      SUNNY     52  45  78 CALM      29.87R
6HR MIN TEMP:  47; 6HR MAX TEMP:  55;

NEW RICHMOND   SUNNY     54  43  66 S5        29.87S
6HR MIN TEMP:  47; 6HR MAX TEMP:  58;

OSCEOLA        SUNNY     56  46  68 SW6       29.89R
6HR MIN TEMP:  49; 6HR MAX TEMP:  56;

$$

WIZ003>005-009-010-017-018-061300-
NORTH CENTRAL WISCONSIN

CITY           SKY/WX    TMP DP  RH WIND       PRES   REMARKS
MANITOWISH WTR SUNNY     48  42  81 CALM      29.84R
6HR MIN TEMP:  42; 6HR MAX TEMP:  52; 6HR PCP:  0.02;

ARBOR VITAE    SUNNY     52  42  70 CALM      29.84S
6HR MIN TEMP:  51; 6HR MAX TEMP:  57;

WOODRUFF       SUNNY     52  42  70 CALM      29.84S
6HR MIN TEMP:  51; 6HR MAX TEMP:  57;

RHINELANDER    NOT AVBL
EAGLE RIVER    SUNNY     49  39  67 CALM      29.84S
LAND O LAKES   SUNNY     48  42  79 SW3       29.85R
6HR MIN TEMP:  42; 6HR MAX TEMP:  51;

PHILLIPS       SUNNY     52  39  62 S3        29.85R
6HR MIN TEMP:  50; 6HR MAX TEMP:  54;

TOMAHAWK       MOSUNNY   50  40  68 CALM      29.86S
6HR MIN TEMP:  40; 6HR MAX TEMP:  50;

MEDFORD        MOSUNNY   52  40  64 SW6       29.87S
6HR MIN TEMP:  47; 6HR MAX TEMP:  53;

MERRILL        CLOUDY    45  41  88 CALM      29.88R
$$

WIZ029-030-035-036-043>047-061300-
CENTRAL WISCONSIN

CITY           SKY/WX    TMP DP  RH WIND       PRES   REMARKS
WAUSAU         NOT AVBL
MOSINEE        PTSUNNY   50  43  76 S5        29.89R
MARSHFIELD     NOT AVBL
STEVENS POINT  MOSUNNY   49  39  68 CALM      29.90R
6HR MIN TEMP:  42; 6HR MAX TEMP:  49;

WAUPACA        MOSUNNY   52  40  64 SW3       29.90S
6HR MIN TEMP:  45; 6HR MAX TEMP:  52;

WAUTOMA        MOSUNNY   50  40  68 CALM      29.92R
6HR MIN TEMP:  42; 6HR MAX TEMP:  50;

WISC RAPIDS    NOT AVBL
CAMP DOUGLAS   PTSUNNY   54  48  82 SE3       29.91R
$$

WIZ011>013-019>022-031-037>040-048>050-061300-
NORTHEAST WISCONSIN

CITY           SKY/WX    TMP DP  RH WIND       PRES   REMARKS
ANTIGO         CLOUDY    50  42  73 CALM      29.88S
6HR MIN TEMP:  43; 6HR MAX TEMP:  50;

SHAWANO        MOSUNNY   54  39  57 SW3       29.89R
6HR MIN TEMP:  50; 6HR MAX TEMP:  55;

OCONTO         SUNNY     51  43  72 S3        29.88S
6HR MIN TEMP:  44; 6HR MAX TEMP:  51;

STURGEON BAY   SUNNY     48  39  71 S7        29.92R
6HR MIN TEMP:  45; 6HR MAX TEMP:  48;

GREEN BAY      NOT AVBL
MANITOWOC      SUNNY     47  44  90 CALM      29.92R
6HR MIN TEMP:  44; 6HR MAX TEMP:  48; 6HR PCP: TRACE;

APPLETON       MOSUNNY   48  37  66 VRB6      29.89R
CLINTONVILLE   MOSUNNY   54  39  58 S6        29.89S
OSHKOSH        SUNNY     51  39  63 S10       29.90S
6HR MIN TEMP:  44; 6HR MAX TEMP:  51;

$$

WIZ032>034-041-042-053>061-061300-
SOUTHWEST WISCONSIN

CITY           SKY/WX    TMP DP  RH WIND       PRES   REMARKS
LA CROSSE      NOT AVBL
SPARTA         MOSUNNY   45  42  91 CALM      29.92R
6HR MIN TEMP:  41; 6HR MAX TEMP:  49;

VIROQUA        SUNNY     53  39  59 SW6       29.93S
6HR MIN TEMP:  51; 6HR MAX TEMP:  55;

BOSCOBEL       CLOUDY    47  43  86 CALM      29.96R
6HR MIN TEMP:  42; 6HR MAX TEMP:  49;

PRAIRIE DU CHI MOSUNNY   50  41  71 CALM      29.95R
6HR MIN TEMP:  46; 6HR MAX TEMP:  52;

PLATTEVILLE    SUNNY     50  39  66 S8        29.97R
6HR MIN TEMP:  49; 6HR MAX TEMP:  54;

$$

WIZ056-057-062-063-064-067-068-061300-
SOUTH CENTRAL WISCONSIN

CITY           SKY/WX    TMP DP  RH WIND       PRES   REMARKS
REEDSBURG      SUNNY     53  39  57 CALM      29.93R
6HR MIN TEMP:  47; 6HR MAX TEMP:  54;

BARABOO/DELLS  MOSUNNY   56  35  44 W8        29.93R
6HR MIN TEMP:  47; 6HR MAX TEMP:  57;

LONE ROCK      PTSUNNY   50  44  80 NE3       29.96R
6HR MIN TEMP:  44; 6HR MAX TEMP:  50;

MINERAL POINT  PTSUNNY   52  37  58 S5        29.96R
MADISON        MOSUNNY   52  38  58 S6        29.95R
6HR MIN TEMP:  44; 6HR MAX TEMP:  52;

MIDDLETON      SUNNY     56  36  47 SW7       29.95R
6HR MIN TEMP:  44; 6HR MAX TEMP:  56;

WATERTOWN      CLOUDY    51  43  74 SW6       29.96R
6HR MIN TEMP:  41; 6HR MAX TEMP:  51;

MONROE         SUNNY     48  39  71 S10       29.97R
JANESVILLE     MOSUNNY   50  43  76 S5        29.97S
$$

WIZ051-052-058>065-066-070>072-061300-
SOUTHEAST WISCONSIN

CITY           SKY/WX    TMP DP  RH WIND       PRES   REMARKS
MILWAUKEE      CLOUDY    52  42  69 S3        29.96R
6HR MIN TEMP:  45; 6HR MAX TEMP:  53; 6HR PCP: TRACE;

WAUKESHA       PTSUNNY   52  37  58 SW5       29.97R
MILWAUKEE/TIMM CLOUDY    50  37  62 CALM      29.96S
RACINE         LGT RAIN  53  40  61 W5        29.97S
6HR MIN TEMP:  42; 6HR MAX TEMP:  53; 6HR PCP: TRACE;

BURLINGTON     CLOUDY    51  41  68 SW6       29.97S
6HR MIN TEMP:  38; 6HR MAX TEMP:  51;

KENOSHA        CLOUDY    51  43  74 W7        29.97R
6HR MIN TEMP:  41; 6HR MAX TEMP:  51; 6HR PCP: TRACE;

FOND DU LAC    CLOUDY    53  40  61 S5        29.93R
6HR MIN TEMP:  45; 6HR MAX TEMP:  53;

SHEBOYGAN      SUNNY     48  42  80 SW5       29.93S
6HR MIN TEMP:  44; 6HR MAX TEMP:  50; 6HR PCP: TRACE;

WEST BEND      PTSUNNY   54  37  54 SW5       29.95R
JUNEAU         CLOUDY    49  39  66 S7        29.96R
6HR MIN TEMP:  44; 6HR MAX TEMP:  50;

$$

LSZ147-162-061300-
LAKE SUPERIOR

STATION/POSITION TIME  TEMP    WIND        PRES    WAVE
                       AIR SEA DIR/SP/G            HT/PER
                 (UTC) (F)     (DEG/KT/KT) (MB)    (FT/S)
W MID LAKE BUOY  1150   44 37  220/  8/  8 1008.0R   1/ 3
DEVILS ISLAND    1200   61     230/ 21/ 22 1007.0F
PORT WING        1000   54     180/  6/  6 1007.8
SAXON HARBOR     1100   63     170/  9/ 13 1007.8R
$$

LMZ867-665-643>646-061300-
LAKE MICHIGAN

STATION/POSITION TIME  TEMP    WIND        PRES    WAVE
                       AIR SEA DIR/SP/G            HT/PER
                 (UTC) (F)     (DEG/KT/KT) (MB)    (FT/S)
CHAMBERS ISLAND  1100   53     180/  6/ 11 1011.9S
N MID LAKE BUOY  1150   41 39  190/ 12/ 14 1012.6R   1/ 3
NORTHPORT PIER   1100   45     190/  4/  7 1011.9S
ALGOMA LAKESHORE 1115          200/  8/  8   N/A
KEWAUNEE LAKESHO 1100   47     200/  2/  4 1011.8F
SHEBOYGAN LAKESH 1200   52     200/  7/  7 1013.9S
PORT WASHINGTON  1100   47     230/  2/  5 1014.6R
S MID LAKE BUOY  1150   43 40  170/  6/  8 1015.2R   1
KENOSHA   LAKESH 1200   54     250/  9/ 11 1014.6S
$$

TC  - TEMPERATURE IN CELSIUS
VSB - VISIBILITY IN STATUTE MILES
WCI - WIND CHILL INDEX
HX  - HEAT INDEX




USA.gov is the U.S. government's official web portal to all federal, state and local government web resources and services.